contact: severine.martini@mio.osupytheas.fr, dominique.lefevre@mio.osupytheas.fr
Project:EMSO Ligure-ouest http://www.emso-fr.org/EMSO-France
Sensor Microcat Sea-Bird SBE37 SMP,  Serial 57510 
DOI : "https://doi.org/10.17882/97948" 
Title:EMSO Ligure Ouest : Data Bathybot capteur Microcat - deploiement 2023-04-28
Datetime,Profondeur,Latitude,Longitude,Temperature,Conductivite,Pression,Salinite
time,m,degree_north,degree_east,degree_C,S/m,db,PSU 
2023-10-26T00:00:49,2420,42.8014,5.9826,13.3012,4.60025,2453.582,38.4947
2023-10-26T00:03:49,2420,42.8014,5.9826,13.3004,4.59997,2453.574,38.4928
2023-10-26T00:06:49,2420,42.8014,5.9826,13.3007,4.59982,2453.619,38.4911
2023-10-26T00:09:49,2420,42.8014,5.9826,13.3029,4.59986,2453.559,38.4893
2023-10-26T00:12:49,2420,42.8014,5.9826,13.3019,4.59992,2453.582,38.4909
2023-10-26T00:15:49,2420,42.8014,5.9826,13.2996,4.59993,2453.604,38.4932
2023-10-26T00:18:49,2420,42.8014,5.9826,13.3002,4.60012,2453.582,38.4944
2023-10-26T00:21:49,2420,42.8014,5.9826,13.3029,4.60050,2453.559,38.4953
2023-10-26T00:24:49,2420,42.8014,5.9826,13.2992,4.59999,2453.604,38.4942
2023-10-26T00:27:49,2420,42.8014,5.9826,13.2988,4.59988,2453.582,38.4936
2023-10-26T00:30:49,2420,42.8014,5.9826,13.3011,4.59991,2453.567,38.4916
2023-10-26T00:33:49,2420,42.8014,5.9826,13.2993,4.59980,2453.590,38.4923
2023-10-26T00:36:49,2420,42.8014,5.9826,13.3049,4.60014,2453.604,38.4900
2023-10-26T00:39:49,2420,42.8014,5.9826,13.3019,4.60008,2453.612,38.4924
2023-10-26T00:42:49,2420,42.8014,5.9826,13.3002,4.60012,2453.604,38.4944
2023-10-26T00:45:49,2420,42.8014,5.9826,13.2996,4.59970,2453.604,38.4910
2023-10-26T00:48:49,2420,42.8014,5.9826,13.3049,4.60007,2453.582,38.4893
2023-10-26T00:51:49,2420,42.8014,5.9826,13.3025,4.59970,2453.582,38.4882
2023-10-26T00:54:49,2420,42.8014,5.9826,13.2998,4.59995,2453.604,38.4932
2023-10-26T00:57:49,2420,42.8014,5.9826,13.3015,4.60011,2453.604,38.4931
2023-10-26T01:00:49,2420,42.8014,5.9826,13.2997,4.59990,2453.559,38.4929
2023-10-26T01:03:49,2420,42.8014,5.9826,13.3012,4.59989,2453.604,38.4912
2023-10-26T01:06:49,2420,42.8014,5.9826,13.3031,4.60016,2453.604,38.4919
2023-10-26T01:09:49,2420,42.8014,5.9826,13.3015,4.59978,2453.582,38.4900
2023-10-26T01:12:49,2420,42.8014,5.9826,13.3020,4.60009,2453.604,38.4924
2023-10-26T01:15:49,2420,42.8014,5.9826,13.3036,4.59987,2453.596,38.4887
2023-10-26T01:18:49,2420,42.8014,5.9826,13.2994,4.60002,2453.604,38.4942
2023-10-26T01:21:50,2420,42.8014,5.9826,13.3021,4.59998,2453.582,38.4912
2023-10-26T01:24:49,2420,42.8014,5.9826,13.3034,4.59988,2453.604,38.4890
2023-10-26T01:27:49,2420,42.8014,5.9826,13.3015,4.59965,2453.627,38.4886
2023-10-26T01:30:49,2420,42.8014,5.9826,13.3010,4.59987,2453.627,38.4912
2023-10-26T01:33:49,2420,42.8014,5.9826,13.2990,4.60005,2453.604,38.4949
2023-10-26T01:36:49,2420,42.8014,5.9826,13.3024,4.59971,2453.604,38.4883
2023-10-26T01:39:49,2420,42.8014,5.9826,13.3041,4.60019,2453.604,38.4911
2023-10-26T01:42:49,2420,42.8014,5.9826,13.3002,4.60026,2453.582,38.4957
2023-10-26T01:45:49,2420,42.8014,5.9826,13.3014,4.60029,2453.604,38.4948
2023-10-26T01:48:49,2420,42.8014,5.9826,13.3027,4.60002,2453.627,38.4910
2023-10-26T01:51:49,2420,42.8014,5.9826,13.3020,4.59999,2453.582,38.4915
2023-10-26T01:54:49,2420,42.8014,5.9826,13.3008,4.59997,2453.627,38.4925
2023-10-26T01:57:49,2420,42.8014,5.9826,13.3037,4.60006,2453.641,38.4904
2023-10-26T02:00:49,2420,42.8014,5.9826,13.3038,4.60002,2453.641,38.4900
2023-10-26T02:03:49,2420,42.8014,5.9826,13.3021,4.59986,2453.627,38.4901
2023-10-26T02:06:49,2420,42.8014,5.9826,13.3040,4.59977,2453.627,38.4873
2023-10-26T02:09:49,2420,42.8014,5.9826,13.3055,4.59998,2453.604,38.4878
2023-10-26T02:12:49,2420,42.8014,5.9826,13.3019,4.59977,2453.641,38.4893
2023-10-26T02:15:49,2420,42.8014,5.9826,13.3034,4.60020,2453.627,38.4920
2023-10-26T02:18:49,2420,42.8014,5.9826,13.3041,4.60017,2453.649,38.4910
2023-10-26T02:21:49,2420,42.8014,5.9826,13.3012,4.60003,2453.672,38.4925
2023-10-26T02:24:49,2420,42.8014,5.9826,13.3023,4.60005,2453.672,38.4917
2023-10-26T02:27:49,2420,42.8014,5.9826,13.3050,4.60012,2453.612,38.4897
2023-10-26T02:30:49,2420,42.8014,5.9826,13.3031,4.59985,2453.641,38.4890
2023-10-26T02:33:49,2420,42.8014,5.9826,13.3050,4.60019,2453.672,38.4903
2023-10-26T02:36:49,2420,42.8014,5.9826,13.3034,4.59990,2453.627,38.4891
2023-10-26T02:39:49,2420,42.8014,5.9826,13.3115,4.59991,2453.687,38.4812
2023-10-26T02:42:49,2420,42.8014,5.9826,13.3019,4.60020,2453.649,38.4934
2023-10-26T02:45:49,2420,42.8014,5.9826,13.3017,4.59999,2453.641,38.4917
2023-10-26T02:48:49,2420,42.8014,5.9826,13.3033,4.59988,2453.649,38.4891
2023-10-26T02:51:49,2420,42.8014,5.9826,13.3018,4.59990,2453.649,38.4907
2023-10-26T02:54:49,2420,42.8014,5.9826,13.3007,4.59976,2453.680,38.4905
2023-10-26T02:57:49,2420,42.8014,5.9826,13.3012,4.59995,2453.672,38.4918
2023-10-26T03:00:49,2420,42.8014,5.9826,13.3004,4.59997,2453.635,38.4928
2023-10-26T03:03:49,2420,42.8014,5.9826,13.3022,4.59997,2453.672,38.4910
2023-10-26T03:06:49,2420,42.8014,5.9826,13.2993,4.59982,2453.695,38.4924
2023-10-26T03:09:49,2420,42.8014,5.9826,13.3038,4.59977,2453.695,38.4876
2023-10-26T03:12:49,2420,42.8014,5.9826,13.2996,4.59977,2453.687,38.4916
2023-10-26T03:15:49,2420,42.8014,5.9826,13.3031,4.59991,2453.635,38.4896
2023-10-26T03:18:49,2420,42.8014,5.9826,13.3011,4.60004,2453.717,38.4928
2023-10-26T03:21:49,2420,42.8014,5.9826,13.3018,4.60006,2453.717,38.4922
2023-10-26T03:24:49,2420,42.8014,5.9826,13.3011,4.59998,2453.695,38.4921
2023-10-26T03:27:49,2420,42.8014,5.9826,13.3040,4.59996,2453.687,38.4891
2023-10-26T03:30:49,2420,42.8014,5.9826,13.3021,4.59991,2453.672,38.4906
2023-10-26T03:33:49,2420,42.8014,5.9826,13.3023,4.59986,2453.695,38.4898
2023-10-26T03:36:49,2420,42.8014,5.9826,13.3016,4.59965,2453.695,38.4886
2023-10-26T03:39:49,2420,42.8014,5.9826,13.3027,4.59980,2453.754,38.4888
2023-10-26T03:42:49,2420,42.8014,5.9826,13.2994,4.59979,2453.695,38.4920
2023-10-26T03:45:49,2420,42.8014,5.9826,13.3025,4.59980,2453.695,38.4891
2023-10-26T03:48:49,2420,42.8014,5.9826,13.2987,4.60013,2453.695,38.4959
2023-10-26T03:51:49,2420,42.8014,5.9826,13.3027,4.59995,2453.702,38.4903
2023-10-26T03:54:49,2420,42.8014,5.9826,13.3016,4.59971,2453.717,38.4892
2023-10-26T03:57:49,2420,42.8014,5.9826,13.3001,4.59978,2453.717,38.4912
2023-10-26T04:00:49,2420,42.8014,5.9826,13.2994,4.59970,2453.717,38.4912
2023-10-26T04:03:49,2420,42.8014,5.9826,13.2991,4.59968,2453.754,38.4913
2023-10-26T04:06:49,2420,42.8014,5.9826,13.2991,4.59981,2453.732,38.4926
2023-10-26T04:09:49,2420,42.8014,5.9826,13.2993,4.59972,2453.717,38.4915
2023-10-26T04:12:49,2420,42.8014,5.9826,13.3011,4.59977,2453.695,38.4901
2023-10-26T04:15:49,2420,42.8014,5.9826,13.2999,4.59988,2453.717,38.4924
2023-10-26T04:18:49,2420,42.8014,5.9826,13.2999,4.59971,2453.717,38.4908
2023-10-26T04:21:49,2420,42.8014,5.9826,13.3004,4.59980,2453.732,38.4911
2023-10-26T04:24:49,2420,42.8014,5.9826,13.2993,4.59980,2453.702,38.4923
2023-10-26T04:27:49,2420,42.8014,5.9826,13.2993,4.59964,2453.717,38.4907
2023-10-26T04:30:49,2420,42.8014,5.9826,13.3000,4.59971,2453.717,38.4908
2023-10-26T04:33:49,2420,42.8014,5.9826,13.3010,4.59994,2453.717,38.4919
2023-10-26T04:36:49,2420,42.8014,5.9826,13.3027,4.59992,2453.717,38.4900
2023-10-26T04:39:49,2420,42.8014,5.9826,13.3026,4.59996,2453.740,38.4905
2023-10-26T04:42:49,2420,42.8014,5.9826,13.3026,4.59999,2453.717,38.4908
2023-10-26T04:45:49,2420,42.8014,5.9826,13.2998,4.59962,2453.717,38.4901
2023-10-26T04:48:49,2420,42.8014,5.9826,13.2988,4.59957,2453.695,38.4906
2023-10-26T04:51:49,2420,42.8014,5.9826,13.2999,4.59977,2453.740,38.4914
2023-10-26T04:54:49,2420,42.8014,5.9826,13.2987,4.59973,2453.717,38.4922
2023-10-26T04:57:49,2420,42.8014,5.9826,13.2986,4.59970,2453.680,38.4920
2023-10-26T05:00:49,2420,42.8014,5.9826,13.2990,4.43075,2453.717,36.9018
2023-10-26T05:03:49,2420,42.8014,5.9826,13.2984,4.42965,2453.717,36.8921
2023-10-26T05:06:49,2420,42.8014,5.9826,13.2988,4.42910,2453.740,36.8865
2023-10-26T05:09:49,2420,42.8014,5.9826,13.3004,4.42931,2453.740,36.8870
2023-10-26T05:12:49,2420,42.8014,5.9826,13.2984,4.42964,2453.725,36.8920
2023-10-26T05:15:49,2420,42.8014,5.9826,13.2982,4.42963,2453.695,36.8921
2023-10-26T05:18:49,2420,42.8014,5.9826,13.2985,4.42912,2453.717,36.8870
2023-10-26T05:21:49,2420,42.8014,5.9826,13.3014,4.42915,2453.717,36.8845
2023-10-26T05:24:49,2420,42.8014,5.9826,13.2993,4.42921,2453.717,36.8871
2023-10-26T05:27:49,2420,42.8014,5.9826,13.2996,4.42905,2453.754,36.8853
2023-10-26T05:30:49,2420,42.8014,5.9826,13.2992,4.42861,2453.717,36.8815
2023-10-26T05:33:49,2420,42.8014,5.9826,13.3004,4.42859,2453.725,36.8802
2023-10-26T05:36:49,2420,42.8014,5.9826,13.2989,4.42854,2453.717,36.8812
2023-10-26T05:39:49,2420,42.8014,5.9826,13.3000,4.42856,2453.717,36.8803
2023-10-26T05:42:49,2420,42.8014,5.9826,13.2986,4.42824,2453.695,36.8787
2023-10-26T05:45:49,2420,42.8014,5.9826,13.2982,4.42790,2453.725,36.8758
2023-10-26T05:48:49,2420,42.8014,5.9826,13.2979,4.42785,2453.717,36.8756
2023-10-26T05:51:49,2420,42.8014,5.9826,13.2988,4.42790,2453.717,36.8753
2023-10-26T05:54:49,2420,42.8014,5.9826,13.2980,4.42796,2453.717,36.8766
2023-10-26T05:57:49,2420,42.8014,5.9826,13.2991,4.42798,2453.717,36.8757
2023-10-26T06:00:49,2420,42.8014,5.9826,13.2980,4.42796,2453.740,36.8765
2023-10-26T06:03:49,2420,42.8014,5.9826,13.3012,4.42787,2453.717,36.8727
2023-10-26T06:06:49,2420,42.8014,5.9826,13.2999,4.42765,2453.717,36.8719
2023-10-26T06:09:49,2420,42.8014,5.9826,13.2993,4.42769,2453.702,36.8728
2023-10-26T06:12:49,2420,42.8014,5.9826,13.2988,4.42752,2453.695,36.8718
2023-10-26T06:15:49,2420,42.8014,5.9826,13.2983,4.42760,2453.762,36.8729
2023-10-26T06:18:49,2420,42.8014,5.9826,13.2986,4.42773,2453.717,36.8738
2023-10-26T06:21:49,2420,42.8014,5.9826,13.2984,4.42738,2453.740,36.8708
2023-10-26T06:24:49,2420,42.8014,5.9826,13.2980,4.42750,2453.702,36.8723
2023-10-26T06:27:49,2420,42.8014,5.9826,13.2987,4.42726,2453.717,36.8694
2023-10-26T06:30:49,2420,42.8014,5.9826,13.2982,4.42737,2453.680,36.8709
2023-10-26T06:33:49,2420,42.8014,5.9826,13.2982,4.42742,2453.717,36.8714
2023-10-26T06:36:49,2420,42.8014,5.9826,13.2983,4.42739,2453.717,36.8710
2023-10-26T06:39:49,2420,42.8014,5.9826,13.2981,4.42730,2453.717,36.8703
2023-10-26T06:42:49,2420,42.8014,5.9826,13.2989,4.42755,2453.695,36.8719
2023-10-26T06:45:49,2420,42.8014,5.9826,13.2985,4.42736,2453.732,36.8705
2023-10-26T06:48:49,2420,42.8014,5.9826,13.2984,4.42773,2453.695,36.8741
2023-10-26T06:51:49,2420,42.8014,5.9826,13.2993,4.42743,2453.695,36.8704
2023-10-26T06:54:50,2420,42.8014,5.9826,13.2982,4.42748,2453.672,36.8720
2023-10-26T06:57:49,2420,42.8014,5.9826,13.2992,4.42724,2453.695,36.8687
2023-10-26T07:00:49,2420,42.8014,5.9826,13.2986,4.42723,2453.717,36.8692
2023-10-26T07:03:49,2420,42.8014,5.9826,13.2980,4.42722,2453.717,36.8696
2023-10-26T07:06:49,2420,42.8014,5.9826,13.3002,4.42767,2453.709,36.8718
2023-10-26T07:09:49,2420,42.8014,5.9826,13.3001,4.42731,2453.695,36.8684
2023-10-26T07:12:49,2420,42.8014,5.9826,13.2988,4.42726,2453.680,36.8693
2023-10-26T07:15:49,2420,42.8014,5.9826,13.2990,4.42716,2453.695,36.8682
2023-10-26T07:18:49,2420,42.8014,5.9826,13.2983,4.42697,2453.695,36.8671
2023-10-26T07:21:49,2420,42.8014,5.9826,13.2982,4.42713,2453.717,36.8687
2023-10-26T07:24:49,2420,42.8014,5.9826,13.2999,4.42717,2453.672,36.8674
2023-10-26T07:27:49,2420,42.8014,5.9826,13.3003,4.42719,2453.695,36.8672
2023-10-26T07:30:49,2420,42.8014,5.9826,13.3004,4.42741,2453.695,36.8691
2023-10-26T07:33:49,2420,42.8014,5.9826,13.2985,4.42726,2453.709,36.8696
2023-10-26T07:36:49,2420,42.8014,5.9826,13.2985,4.42691,2453.695,36.8663
2023-10-26T07:39:49,2420,42.8014,5.9826,13.2994,4.42710,2453.672,36.8672
2023-10-26T07:42:49,2420,42.8014,5.9826,13.2985,4.42696,2453.695,36.8668
2023-10-26T07:45:49,2420,42.8014,5.9826,13.3000,4.42699,2453.672,36.8656
2023-10-26T07:48:49,2420,42.8014,5.9826,13.2982,4.42691,2453.649,36.8666
2023-10-26T07:51:49,2420,42.8014,5.9826,13.2984,4.42703,2453.664,36.8675
2023-10-26T07:54:49,2420,42.8014,5.9826,13.3000,4.42683,2453.649,36.8641
2023-10-26T07:57:49,2420,42.8014,5.9826,13.2992,4.42705,2453.657,36.8669
2023-10-26T08:00:49,2420,42.8014,5.9826,13.2987,4.42726,2453.687,36.8693
2023-10-26T08:03:49,2420,42.8014,5.9826,13.3013,4.42710,2453.672,36.8654
2023-10-26T08:06:49,2420,42.8014,5.9826,13.2996,4.42694,2453.695,36.8655
2023-10-26T08:09:49,2420,42.8014,5.9826,13.2988,4.42688,2453.649,36.8658
2023-10-26T08:12:49,2420,42.8014,5.9826,13.2998,4.42696,2453.649,36.8655
2023-10-26T08:15:49,2420,42.8014,5.9826,13.2987,4.42679,2453.657,36.8650
2023-10-26T08:18:49,2420,42.8014,5.9826,13.2992,4.42691,2453.672,36.8657
2023-10-26T08:21:49,2420,42.8014,5.9826,13.2982,4.42680,2453.649,36.8655
2023-10-26T08:24:49,2420,42.8014,5.9826,13.2985,4.42695,2453.635,36.8667
2023-10-26T08:27:49,2420,42.8014,5.9826,13.2983,4.42673,2453.672,36.8648
2023-10-26T08:30:49,2420,42.8014,5.9826,13.2988,4.42705,2453.649,36.8673
2023-10-26T08:33:49,2420,42.8014,5.9826,13.2985,4.42689,2453.672,36.8662
2023-10-26T08:36:49,2420,42.8014,5.9826,13.2983,4.42682,2453.649,36.8656
2023-10-26T08:39:49,2420,42.8014,5.9826,13.2986,4.42681,2453.664,36.8652
2023-10-26T08:42:49,2420,42.8014,5.9826,13.2984,4.42708,2453.635,36.8680
2023-10-26T08:45:49,2420,42.8014,5.9826,13.2983,4.42691,2453.627,36.8665
2023-10-26T08:48:49,2420,42.8014,5.9826,13.3007,4.42684,2453.649,36.8636
2023-10-26T08:51:49,2420,42.8014,5.9826,13.2982,4.42697,2453.627,36.8672
2023-10-26T08:54:49,2420,42.8014,5.9826,13.2999,4.42675,2453.641,36.8634
2023-10-26T08:57:49,2420,42.8014,5.9826,13.2988,4.42686,2453.627,36.8656
2023-10-26T09:00:49,2420,42.8014,5.9826,13.2988,4.42714,2453.649,36.8681
2023-10-26T09:03:49,2420,42.8014,5.9826,13.3021,4.42696,2453.627,36.8634
2023-10-26T09:06:49,2420,42.8014,5.9826,13.2987,4.42689,2453.604,36.8660
2023-10-26T09:09:49,2420,42.8014,5.9826,13.2989,4.42694,2453.604,36.8662
2023-10-26T09:12:49,2420,42.8014,5.9826,13.2990,4.42674,2453.604,36.8642
2023-10-26T09:15:49,2420,42.8014,5.9826,13.2997,4.42688,2453.604,36.8649
2023-10-26T09:18:49,2420,42.8014,5.9826,13.2985,4.42670,2453.627,36.8644
2023-10-26T09:21:49,2420,42.8014,5.9826,13.2995,4.42656,2453.604,36.8621
2023-10-26T09:24:49,2420,42.8014,5.9826,13.2991,4.42691,2453.590,36.8658
2023-10-26T09:27:49,2420,42.8014,5.9826,13.2985,4.42683,2453.604,36.8656
2023-10-26T09:30:49,2420,42.8014,5.9826,13.2988,4.42693,2453.627,36.8662
2023-10-26T09:33:49,2420,42.8014,5.9826,13.2983,4.42696,2453.627,36.8670
2023-10-26T09:36:49,2420,42.8014,5.9826,13.2979,4.42666,2453.604,36.8646
2023-10-26T09:39:49,2420,42.8014,5.9826,13.2978,4.42692,2453.649,36.8671
2023-10-26T09:42:49,2420,42.8014,5.9826,13.2998,4.42697,2453.604,36.8656
2023-10-26T09:45:49,2420,42.8014,5.9826,13.2998,4.42691,2453.627,36.8651
2023-10-26T09:48:49,2420,42.8014,5.9826,13.3012,4.42720,2453.627,36.8664
2023-10-26T09:51:49,2420,42.8014,5.9826,13.3042,4.42731,2453.619,36.8647
2023-10-26T09:54:49,2420,42.8014,5.9826,13.3001,4.42691,2453.627,36.8648
2023-10-26T09:57:49,2420,42.8014,5.9826,13.3000,4.42685,2453.590,36.8643
2023-10-26T10:00:49,2420,42.8014,5.9826,13.2982,4.42661,2453.582,36.8638
2023-10-26T10:03:49,2420,42.8014,5.9826,13.2992,4.42677,2453.619,36.8643
2023-10-26T10:06:49,2420,42.8014,5.9826,13.2979,4.42683,2453.627,36.8661
2023-10-26T10:09:49,2420,42.8014,5.9826,13.2980,4.42699,2453.604,36.8676
2023-10-26T10:12:49,2420,42.8014,5.9826,13.2993,4.42718,2453.604,36.8681
2023-10-26T10:15:49,2420,42.8014,5.9826,13.2983,4.42730,2453.596,36.8702
2023-10-26T10:18:49,2420,42.8014,5.9826,13.2989,4.42691,2453.612,36.8660
2023-10-26T10:21:49,2420,42.8014,5.9826,13.3013,4.42702,2453.604,36.8647
2023-10-26T10:24:49,2420,42.8014,5.9826,13.2991,4.42724,2453.604,36.8689
2023-10-26T10:27:49,2420,42.8014,5.9826,13.2998,4.42688,2453.544,36.8648
2023-10-26T10:30:49,2420,42.8014,5.9826,13.2984,4.42704,2453.604,36.8676
2023-10-26T10:33:49,2420,42.8014,5.9826,13.3015,4.42700,2453.604,36.8643
2023-10-26T10:36:49,2420,42.8014,5.9826,13.3003,4.42668,2453.604,36.8624
2023-10-26T10:39:49,2420,42.8014,5.9826,13.2998,4.42667,2453.596,36.8629
2023-10-26T10:42:49,2420,42.8014,5.9826,13.3016,4.42723,2453.582,36.8664
2023-10-26T10:45:49,2420,42.8014,5.9826,13.3015,4.42708,2453.582,36.8651
2023-10-26T10:48:49,2420,42.8014,5.9826,13.3031,4.42696,2453.582,36.8624
2023-10-26T10:51:49,2420,42.8014,5.9826,13.3022,4.42710,2453.582,36.8645
2023-10-26T10:54:49,2420,42.8014,5.9826,13.3015,4.42694,2453.559,36.8637
2023-10-26T10:57:49,2420,42.8014,5.9826,13.2993,4.42719,2453.582,36.8682
2023-10-26T11:00:49,2420,42.8014,5.9826,13.2994,4.42697,2453.596,36.8660
2023-10-26T11:03:49,2420,42.8014,5.9826,13.2988,4.42724,2453.582,36.8692
2023-10-26T11:06:49,2420,42.8014,5.9826,13.3000,4.42742,2453.582,36.8697
2023-10-26T11:09:49,2420,42.8014,5.9826,13.2996,4.42792,2453.582,36.8748
2023-10-26T11:12:49,2420,42.8014,5.9826,13.2992,4.42772,2453.559,36.8732
2023-10-26T11:15:49,2420,42.8014,5.9826,13.3016,4.42806,2453.582,36.8742
2023-10-26T11:18:49,2420,42.8014,5.9826,13.2985,4.42759,2453.582,36.8727
2023-10-26T11:21:49,2420,42.8014,5.9826,13.3013,4.42836,2453.582,36.8772
2023-10-26T11:24:49,2420,42.8014,5.9826,13.3004,4.42747,2453.582,36.8698
2023-10-26T11:27:49,2420,42.8014,5.9826,13.2998,4.42978,2453.544,36.8920
2023-10-26T11:30:49,2420,42.8014,5.9826,13.2995,4.42724,2453.582,36.8685
2023-10-26T11:33:49,2420,42.8014,5.9826,13.3017,4.42791,2453.559,36.8727
2023-10-26T11:36:49,2420,42.8014,5.9826,13.2994,4.42872,2453.559,36.8824
2023-10-26T11:39:49,2420,42.8014,5.9826,13.2991,4.42821,2453.582,36.8780
2023-10-26T11:42:49,2420,42.8014,5.9826,13.2993,4.42899,2453.559,36.8851
2023-10-26T11:45:49,2420,42.8014,5.9826,13.2994,4.42966,2453.604,36.8913
2023-10-26T11:48:49,2420,42.8014,5.9826,13.3020,4.42788,2453.582,36.8721
2023-10-26T11:51:49,2420,42.8014,5.9826,13.3003,4.43044,2453.567,36.8977
2023-10-26T11:54:49,2420,42.8014,5.9826,13.2993,4.42766,2453.582,36.8726
2023-10-26T11:57:49,2420,42.8014,5.9826,13.3010,4.42767,2453.559,36.8711
2023-10-26T12:00:49,2420,42.8014,5.9826,13.3010,4.42774,2453.559,36.8717
2023-10-26T12:03:49,2420,42.8014,5.9826,13.3001,4.42748,2453.559,36.8701
2023-10-26T12:06:49,2420,42.8014,5.9826,13.2996,4.42723,2453.559,36.8682
2023-10-26T12:09:49,2420,42.8014,5.9826,13.2981,4.42872,2453.604,36.8837
2023-10-26T12:12:49,2420,42.8014,5.9826,13.3009,4.42760,2453.582,36.8705
2023-10-26T12:15:49,2420,42.8014,5.9826,13.2991,4.42771,2453.559,36.8732
2023-10-26T12:18:49,2420,42.8014,5.9826,13.3018,4.42801,2453.582,36.8735
2023-10-26T12:21:49,2420,42.8014,5.9826,13.2996,4.42731,2453.596,36.8690
2023-10-26T12:24:49,2420,42.8014,5.9826,13.3000,4.42784,2453.604,36.8735
2023-10-26T12:27:49,2420,42.8014,5.9826,13.3026,4.42811,2453.559,36.8738
2023-10-26T12:30:49,2420,42.8014,5.9826,13.3007,4.42803,2453.559,36.8748
2023-10-26T12:33:49,2420,42.8014,5.9826,13.2982,4.42788,2453.574,36.8757
2023-10-26T12:36:49,2420,42.8014,5.9826,13.3021,4.42792,2453.582,36.8723
2023-10-26T12:39:49,2420,42.8014,5.9826,13.3025,4.42766,2453.537,36.8696
2023-10-26T12:42:49,2420,42.8014,5.9826,13.3032,4.42950,2453.582,36.8861
2023-10-26T12:45:49,2420,42.8014,5.9826,13.3041,4.42862,2453.619,36.8771
2023-10-26T12:48:49,2420,42.8014,5.9826,13.2995,4.42931,2453.559,36.8879
2023-10-26T12:51:49,2420,42.8014,5.9826,13.3004,4.42747,2453.559,36.8698
2023-10-26T12:54:49,2420,42.8014,5.9826,13.3029,4.42803,2453.604,36.8726
2023-10-26T12:57:49,2420,42.8014,5.9826,13.3020,4.42710,2453.596,36.8648
2023-10-26T13:00:49,2420,42.8014,5.9826,13.3016,4.42767,2453.582,36.8705
2023-10-26T13:03:49,2420,42.8014,5.9826,13.3059,4.42881,2453.582,36.8771
2023-10-26T13:06:49,2420,42.8014,5.9826,13.3009,4.42747,2453.582,36.8693
2023-10-26T13:09:49,2420,42.8014,5.9826,13.3063,4.42719,2453.582,36.8615
2023-10-26T13:12:49,2420,42.8014,5.9826,13.3013,4.42800,2453.604,36.8738
2023-10-26T13:15:49,2420,42.8014,5.9826,13.3096,4.42803,2453.619,36.8663
2023-10-26T13:18:49,2420,42.8014,5.9826,13.3010,4.42784,2453.582,36.8726
2023-10-26T13:21:49,2420,42.8014,5.9826,13.3046,4.42721,2453.619,36.8634
2023-10-26T13:24:49,2420,42.8014,5.9826,13.3050,4.42705,2453.627,36.8615
2023-10-26T13:27:49,2420,42.8014,5.9826,13.3023,4.43047,2453.627,36.8961
2023-10-26T13:30:49,2420,42.8014,5.9826,13.3007,4.42853,2453.627,36.8794
2023-10-26T13:33:50,2420,42.8014,5.9826,13.3023,4.42818,2453.612,36.8746
2023-10-26T13:36:49,2420,42.8014,5.9826,13.3046,4.42713,2453.619,36.8626
2023-10-26T13:39:49,2420,42.8014,5.9826,13.3026,4.42659,2453.649,36.8594
2023-10-26T13:42:49,2420,42.8014,5.9826,13.3051,4.42662,2453.649,36.8573
2023-10-26T13:45:49,2420,42.8014,5.9826,13.3038,4.42722,2453.649,36.8641
2023-10-26T13:48:49,2420,42.8014,5.9826,13.3001,4.42752,2453.664,36.8705
2023-10-26T13:51:49,2420,42.8014,5.9826,13.3036,4.42679,2453.627,36.8603
2023-10-26T13:54:49,2420,42.8014,5.9826,13.3033,4.42888,2453.649,36.8802
2023-10-26T13:57:49,2420,42.8014,5.9826,13.3104,4.42841,2453.672,36.8690
2023-10-26T14:00:49,2420,42.8014,5.9826,13.3044,4.42706,2453.672,36.8621
2023-10-26T14:03:50,2420,42.8014,5.9826,13.3034,4.42734,2453.649,36.8657
2023-10-26T14:06:49,2420,42.8014,5.9826,13.3023,4.42960,2453.687,36.8879
2023-10-26T14:09:49,2420,42.8014,5.9826,13.3060,4.42845,2453.641,36.8736
2023-10-26T14:12:49,2420,42.8014,5.9826,13.3093,4.42771,2453.649,36.8635
2023-10-26T14:15:49,2420,42.8014,5.9826,13.2996,4.42693,2453.695,36.8655
2023-10-26T14:18:49,2420,42.8014,5.9826,13.3021,4.42705,2453.672,36.8642
2023-10-26T14:21:49,2420,42.8014,5.9826,13.3079,4.42816,2453.672,36.8692
2023-10-26T14:24:50,2420,42.8014,5.9826,13.3058,4.42732,2453.672,36.8632
2023-10-26T14:27:49,2420,42.8014,5.9826,13.3041,4.42727,2453.687,36.8644
2023-10-26T14:30:49,2420,42.8014,5.9826,13.3029,4.43089,2453.695,36.8994
2023-10-26T14:33:49,2420,42.8014,5.9826,13.3037,4.43141,2453.672,36.9036
2023-10-26T14:36:49,2420,42.8014,5.9826,13.3037,4.43219,2453.672,36.9109
2023-10-26T14:39:49,2420,42.8014,5.9826,13.3008,4.42764,2453.680,36.8710
2023-10-26T14:42:49,2420,42.8014,5.9826,13.3004,4.42812,2453.695,36.8758
2023-10-26T14:45:49,2420,42.8014,5.9826,13.3036,4.42779,2453.695,36.8697
2023-10-26T14:48:49,2420,42.8014,5.9826,13.3004,4.42749,2453.672,36.8699
2023-10-26T14:51:49,2420,42.8014,5.9826,13.3034,4.43070,2453.695,36.8971
2023-10-26T14:54:50,2420,42.8014,5.9826,13.3022,4.43036,2453.695,36.8951
2023-10-26T14:57:49,2420,42.8014,5.9826,13.3036,4.42915,2453.717,36.8825
2023-10-26T15:00:49,2420,42.8014,5.9826,13.3018,4.42769,2453.717,36.8705
2023-10-26T15:03:49,2420,42.8014,5.9826,13.2995,4.42732,2453.717,36.8692
2023-10-26T15:06:49,2420,42.8014,5.9826,13.3000,4.42798,2453.740,36.8749
2023-10-26T15:09:49,2420,42.8014,5.9826,13.3019,4.42759,2453.754,36.8694
2023-10-26T15:12:49,2420,42.8014,5.9826,13.3015,4.42736,2453.717,36.8677
2023-10-26T15:15:49,2420,42.8014,5.9826,13.3019,4.42752,2453.740,36.8687
2023-10-26T15:18:49,2420,42.8014,5.9826,13.3016,4.42754,2453.740,36.8693
2023-10-26T15:21:49,2420,42.8014,5.9826,13.2989,4.42751,2453.740,36.8715
2023-10-26T15:24:49,2420,42.8014,5.9826,13.3004,4.42844,2453.717,36.8789
2023-10-26T15:27:49,2420,42.8014,5.9826,13.3004,4.43291,2453.740,36.9207
2023-10-26T15:30:49,2420,42.8014,5.9826,13.3021,4.42771,2453.725,36.8704
2023-10-26T15:33:49,2420,42.8014,5.9826,13.3031,4.42824,2453.740,36.8743
2023-10-26T15:36:49,2420,42.8014,5.9826,13.3009,4.42802,2453.717,36.8744
2023-10-26T15:39:49,2420,42.8014,5.9826,13.3017,4.43127,2453.762,36.9041
2023-10-26T15:42:49,2420,42.8014,5.9826,13.3002,4.42853,2453.740,36.8798
2023-10-26T15:45:49,2420,42.8014,5.9826,13.3025,4.42839,2453.762,36.8764
2023-10-26T15:48:49,2420,42.8014,5.9826,13.3051,4.42771,2453.762,36.8674
2023-10-26T15:51:49,2420,42.8014,5.9826,13.3029,4.42769,2453.717,36.8695
2023-10-26T15:54:49,2420,42.8014,5.9826,13.3004,4.42671,2453.748,36.8626
2023-10-26T15:57:49,2420,42.8014,5.9826,13.3027,4.42715,2453.762,36.8645
2023-10-26T16:00:50,2420,42.8014,5.9826,13.2993,4.42619,2453.807,36.8588
2023-10-26T16:03:49,2420,42.8014,5.9826,13.3011,4.42568,2453.762,36.8523